Location: Orange Harbor Mobile Home Park
(26.6923°N, 81.7937°W)
Time: 22:47:54
(UTC+00:00)

Cosmos 1025 Rocket - Pass Details

Date: 19 September 2020
Orbit: 595 x 617 km, 82.5° (Epoch: 25 October)

Event Time Altitude Azimuth Distance (km) Brightness Sun altitude
Rises 01:19:01 0° 355° (N) 2,880 6.8 -25.4°
Reaches altitude 10° 01:21:14 10° 355° (N) 1,975 5.9 -25.9°
Enters shadow 01:23:48 35° 358° (N) 996 4.2 -26.5°
